Location: Lake Almanor
(40.2485°N, 121.1442°W)
Time: 02:18:31
(UTC-08:00)

STARLINK-1069 - Pass Details

Date: 03 February 2020
Orbit: 349 x 350 km, 53.0° (Epoch: 22 February)

Event Time Altitude Azimuth Distance (km) Brightness Sun altitude
Rises 17:51:13 0° 306° (NW) 2,162 7.2 -5.5°
Reaches altitude 10° 17:53:15 10° 303° (WNW) 1,316 6.2 -5.9°
Maximum altitude 17:56:09 61° 223° (SW) 401 3.3 -6.4°
Drops below altitude 10° 17:59:02 10° 141° (SE) 1,308 5.3 -6.9°
Sets 18:01:02 0° 138° (SE) 2,146 6.4 -7.3°
